Theta_e
320 320 321 322 327 326 326 324 322 320 319 317 316 315 314 313 313 313 313 312 313 314 314 316 317 317 309 303 302 312 326 322 316 313 310 313 316 314 309 312 314 311 313 314 314 308 304
317 319 320 320 322 326 326 324 322 320 319 317 316 315 314 313 313 312 312 312 312 312 314 316 317 317 308 297 310 312 314 314 314 313 318 319 317 319 313 310 308 309 307 306 305 303 302
316 316 318 319 319 320 325 323 322 321 319 318 316 315 314 313 312 311 311 311 311 312 314 316 318 311 303 302 309 309 314 314 314 317 311 313 321 313 312 307 310 306 301 302 301 301 299
315 316 316 317 318 318 319 322 322 321 320 318 317 315 314 312 311 310 310 310 310 312 314 317 317 309 299 310 310 313 313 315 317 316 315 318 319 313 310 310 307 302 300 293 300 302 302
313 315 316 316 318 317 318 320 321 320 320 318 317 315 313 312 310 309 309 309 311 314 316 315 308 306 298 312 308 310 311 313 314 313 313 317 314 307 308 302 296 297 290 292 295 301 298
311 313 315 317 317 317 318 318 320 320 319 318 317 315 313 312 310 309 308 310 313 313 313 312 308 302 304 302 306 311 311 314 311 311 309 308 306 301 300 295 289 291 291 294 292 295 295
310 311 313 315 316 317 317 318 319 319 318 318 317 316 314 312 309 309 305 311 305 303 303 300 302 304 304 306 309 308 311 312 310 309 300 303 298 294 298 299 299 296 295 292 291 296 293
310 311 311 312 313 316 317 317 316 318 318 318 317 315 313 311 309 309 307 312 306 308 299 304 305 305 307 307 304 305 309 305 306 300 304 299 293 298 300 298 297 297 293 289 291 295 294
310 310 310 311 312 313 314 316 316 316 317 318 316 315 313 310 308 307 310 310 314 314 301 301 303 302 303 305 302 301 305 304 303 300 299 295 296 300 299 297 296 294 292 290 290 292 293
309 309 310 310 311 312 312 313 314 315 317 316 316 314 312 307 304 310 305 312 318 317 295 296 298 300 303 304 301 303 306 305 304 297 297 295 298 297 296 296 296 291 296 296 293 288 285
308 309 309 310 311 311 311 311 313 314 316 316 315 313 311 307 301 306 310 313 313 317 281 299 297 302 302 300 300 300 304 303 299 297 299 294 294 294 294 295 298 294 297 295 294 289 286
307 308 309 309 310 310 311 311 312 313 313 315 314 312 309 303 302 309 315 314 313 287 280 295 297 296 296 299 299 299 301 304 304 298 296 295 298 295 295 297 298 298 296 294 293 289 283
306 307 308 308 309 309 310 310 311 312 312 314 313 312 305 305 305 316 315 308 283 277 298 291 292 296 295 294 296 296 297 295 292 288 289 293 294 295 298 293 295 294 291 282 280 280 281
306 306 306 307 308 309 309 310 310 311 312 313 311 310 308 303 306 313 310 296 276 290 292 295 295 295 292 295 296 295 294 290 296 296 289 287 283 292 297 295 293 292 293 286 282 281 287
305 306 306 306 307 307 308 309 310 311 311 312 308 306 303 304 305 316 302 285 284 293 293 292 293 291 291 295 295 294 293 292 296 296 289 288 287 294 295 296 295 294 288 296 289 291 284
305 306 306 306 306 307 307 308 309 310 311 309 306 303 304 310 318 312 296 289 294 299 295 294 289 293 289 291 292 291 292 297 297 299 300 296 285 293 294 295 296 296 298 286 285 275 279
304 305 305 305 305 306 307 308 309 310 310 309 304 297 307 313 318 301 287 291 298 299 297 293 292 292 293 291 292 292 294 297 299 297 297 295 288 287 292 289 289 291 290 292 291 286 281
304 304 305 305 305 306 306 307 308 310 308 307 301 293 315 317 299 295 290 298 300 295 297 296 295 294 293 293 292 292 293 296 300 297 292 297 290 282 287 293 294 292 292 293 282 281 284
303 304 304 305 305 305 306 307 308 309 308 304 298 303 316 311 287 288 296 298 301 295 294 295 294 295 296 294 290 294 295 298 298 297 294 295 287 281 284 288 291 287 291 287 288 288 285
302 303 304 304 305 306 306 307 307 309 308 306 299 288 300 305 302 295 293 294 296 300 296 297 295 295 293 292 297 294 293 297 299 298 300 299 290 285 280 286 288 281 286 286 286 283 284
302 302 303 303 304 305 306 306 307 308 308 306 299 290 298 288 294 294 296 296 294 295 298 297 294 294 293 289 292 292 294 295 297 299 297 294 285 287 289 294 292 290 287 288 285 288 284
301 302 303 303 304 304 304 306 306 307 307 302 291 296 300 295 297 295 296 294 294 297 296 294 293 295 294 291 292 289 294 293 293 295 293 294 286 289 285 292 291 288 289 290 290 289 289
301 302 302 303 303 303 303 304 305 307 307 301 302 306 299 295 294 294 294 295 297 299 300 299 296 294 293 295 297 298 299 298 297 293 292 291 286 284 282 288 286 279 287 290 290 292 291
301 301 302 303 303 303 303 303 304 306 306 305 306 307 298 289 293 293 299 300 299 300 297 300 298 296 298 301 300 299 298 298 297 296 297 292 289 285 281 284 270 286 293 293 291 292 293
300 301 302 302 302 302 303 303 304 305 307 303 307 304 301 291 294 295 299 300 301 302 301 299 300 301 301 300 290 286 284 286 290 295 294 296 288 282 277 279 284 288 290 289 286 288 292
300 300 301 302 302 302 303 302 304 304 307 304 304 307 305 297 294 299 296 301 298 296 298 298 302 301 303 294 284 279 279 283 281 289 293 294 293 284 281 277 275 287 291 294 292 280 293
300 300 301 301 302 302 302 302 304 304 307 305 304 307 305 298 303 302 299 299 302 300 295 295 297 296 299 285 283 282 282 291 282 282 281 284 283 281 279 278 284 290 293 295 281 282 293
299 300 300 301 301 301 301 301 304 305 307 305 303 306 304 301 302 307 309 303 303 301 291 295 291 291 288 284 284 283 283 286 287 289 285 283 280 278 280 274 277 292 291 286 290 294 295
299 299 300 300 301 301 301 301 304 305 306 306 301 307 307 301 300 307 306 308 307 305 299 296 293 295 293 286 288 287 285 284 287 282 291 283 288 284 285 284 293 295 293 294 296 295 296
Wind_Speed
13 13 13 16 9 10 9 7 7 5 6 8 9 10 11 14 16 18 19 18 17 17 19 17 18 21 8 6 3 12 13 12 9 6 6 3 14 11 11 15 19 20 17 15 16 15 13
9 11 11 12 14 10 9 8 8 7 6 7 9 10 10 12 14 17 19 19 19 18 18 18 15 21 1 4 6 11 11 10 7 6 12 10 17 22 15 8 8 10 16 15 11 14 14
9 8 10 10 12 14 11 9 9 8 7 6 9 9 10 12 14 17 19 20 20 18 19 17 12 7 6 3 10 17 11 6 5 6 10 7 12 9 12 18 14 12 16 13 13 11 10
10 8 9 8 9 11 13 10 10 9 7 7 8 9 10 11 13 17 19 21 21 19 17 14 12 2 1 6 9 14 11 11 11 10 10 11 14 10 8 16 12 14 7 6 7 7 8
10 9 8 9 8 10 13 12 10 9 8 8 7 8 9 11 13 17 20 23 21 16 12 12 5 1 2 10 9 10 9 6 9 10 6 7 7 5 8 12 6 4 5 9 5 8 4
11 10 9 8 8 7 8 13 12 10 9 9 8 7 10 11 12 16 22 18 16 11 5 2 4 5 5 3 4 8 9 3 3 2 3 5 6 5 2 4 6 7 8 6 7 5 4
12 12 9 9 9 8 9 11 12 10 9 9 7 7 9 12 13 13 12 7 6 6 6 3 4 2 4 2 3 5 5 8 6 2 4 3 7 3 11 10 7 5 12 9 6 6 4
12 10 11 10 8 10 10 9 15 11 10 9 7 7 9 11 13 13 2 5 4 1 3 4 2 4 5 2 1 4 11 5 4 3 3 5 3 4 5 6 4 5 11 7 3 7 6
10 9 9 10 10 9 11 10 10 14 10 10 9 7 7 10 13 5 2 5 5 7 2 2 2 2 2 4 4 6 8 5 2 4 6 7 4 7 6 5 8 6 8 6 7 5 4
11 10 8 10 11 10 10 11 10 14 12 10 9 7 5 10 5 5 1 4 5 2 4 4 3 2 2 3 2 3 5 2 2 5 6 5 5 6 5 4 6 5 4 4 10 6 4
11 11 10 10 9 8 10 11 10 10 13 11 9 6 3 2 5 3 1 3 6 4 3 6 4 1 2 3 6 2 4 6 3 4 6 2 6 6 7 5 6 1 6 4 4 8 3
13 12 10 10 10 9 10 11 9 9 14 11 10 8 2 1 2 8 5 6 4 9 4 2 5 4 5 1 3 3 3 3 3 7 9 3 1 4 2 3 6 4 3 4 5 3 3
13 12 11 9 9 10 9 11 9 10 12 11 10 9 5 3 3 2 4 4 8 5 3 2 4 7 6 4 4 3 1 1 4 5 1 3 2 3 1 3 4 3 5 3 4 4 7
14 12 11 9 7 10 10 11 10 11 10 12 10 7 7 5 4 6 3 6 5 6 3 4 3 9 4 5 3 6 6 3 5 1 4 5 4 0 3 3 2 4 6 6 4 1 4
16 13 12 11 9 11 10 10 11 10 9 8 12 0 5 5 6 1 6 4 10 6 7 7 6 7 2 3 2 3 3 6 7 5 7 6 1 1 6 4 3 2 0 2 3 4 1
18 15 13 11 11 11 12 9 10 9 6 15 3 3 5 6 4 3 5 7 5 2 6 6 3 3 7 5 2 4 4 4 4 3 7 3 5 1 2 2 2 2 2 4 5 0 4
18 16 14 12 9 10 12 11 9 8 9 9 2 3 5 10 4 3 6 8 5 7 8 6 5 3 6 7 4 4 4 2 4 3 7 4 7 2 3 4 7 2 0 2 4 6 5
18 17 14 12 9 11 12 11 9 7 12 4 2 1 2 7 4 4 5 7 4 9 4 3 2 2 7 10 6 2 3 4 4 6 5 2 6 4 5 2 4 1 5 6 7 5 4
19 17 15 12 11 13 13 12 10 8 16 4 4 4 2 2 6 3 3 7 4 7 6 6 5 1 1 3 7 6 5 3 6 3 4 2 0 4 4 5 4 3 2 5 4 3 7
20 18 15 12 11 10 12 12 11 12 19 2 3 4 3 2 3 6 8 10 7 7 8 6 5 4 3 3 1 7 5 2 5 4 1 3 2 7 8 5 5 1 3 1 5 3 3
20 17 15 13 11 11 10 12 11 12 20 3 3 7 4 8 8 6 9 11 14 7 6 8 4 4 5 3 2 2 5 4 0 3 2 4 3 1 4 3 4 6 5 8 8 11 7
21 18 15 14 11 10 5 9 11 11 19 3 5 3 1 5 15 15 10 12 21 12 10 9 8 8 8 6 8 10 7 4 5 3 4 2 3 1 3 6 10 7 8 10 12 11 11
21 18 16 14 13 12 8 7 9 12 15 3 1 4 3 10 13 10 8 19 14 11 7 8 9 8 8 7 2 2 6 7 8 8 6 6 5 3 4 3 4 6 10 14 10 7 7
20 19 17 15 15 14 10 9 11 14 18 4 4 4 4 3 14 15 13 13 16 11 9 8 11 8 6 9 8 9 10 7 3 6 7 6 6 4 3 3 2 10 2 3 10 10 9
18 17 16 16 14 11 14 9 15 16 20 8 3 3 2 4 10 19 14 12 12 12 8 10 3 8 10 7 6 6 7 8 6 1 4 4 5 2 4 3 7 9 2 3 4 2 4
18 17 16 16 15 11 13 11 15 18 19 8 5 3 2 5 9 17 18 10 10 8 4 3 7 8 7 5 5 6 5 6 3 2 6 1 5 6 2 3 5 6 2 3 3 5 8
19 18 16 17 15 13 12 13 16 19 19 8 2 2 2 3 3 8 5 10 5 5 6 4 5 3 7 4 3 4 4 8 5 8 5 1 2 6 2 3 8 2 4 2 4 8 6
18 18 16 17 15 12 14 11 16 19 20 12 2 3 2 1 3 3 2 3 5 2 7 7 7 5 4 4 5 5 4 7 6 7 8 8 7 4 3 3 8 4 3 3 5 2 5
19 18 17 16 17 12 11 12 17 19 19 19 4 3 3 2 3 4 4 5 3 4 7 2 7 6 6 4 2 3 1 1 7 5 4 4 8 7 9 8 4 4 6 3 3 3 6
Wind_Direction
2 2 2 356 268 247 239 241 254 274 299 311 320 327 334 338 333 328 326 325 325 321 317 321 324 322 349 53 313 284 300 305 299 311 272 238 85 75 81 95 87 110 127 124 135 104 110
357 358 359 1 350 260 247 242 246 261 277 299 315 322 333 333 330 325 324 321 317 317 314 316 326 318 340 66 269 316 292 303 279 324 41 80 98 108 111 99 76 107 96 100 100 102 112
334 337 350 5 346 348 270 247 251 257 267 295 306 321 332 329 326 322 322 318 310 312 307 310 327 322 47 270 309 318 300 347 351 66 60 27 107 86 107 91 99 96 100 91 110 138 144
331 324 325 346 352 343 333 260 243 245 264 278 294 317 327 323 323 321 318 312 306 301 301 302 324 296 3 286 315 360 340 16 36 58 73 72 105 110 95 116 111 122 123 122 209 150 200
313 323 318 322 339 343 344 289 248 237 243 264 282 305 321 322 326 321 316 308 295 291 280 292 330 3 350 321 1 329 6 27 32 30 35 75 56 80 101 126 103 244 149 119 146 193 144
306 307 327 313 320 338 337 331 267 242 235 249 272 304 318 319 325 323 321 293 285 327 292 205 267 40 4 18 329 327 329 294 88 83 23 74 81 119 70 137 175 188 122 141 155 231 169
297 299 300 321 327 321 338 339 294 251 239 248 266 293 310 317 322 330 350 348 10 359 26 65 5 106 91 326 320 360 328 354 14 1 105 171 101 183 200 231 264 186 140 149 154 183 191
291 291 289 291 314 328 330 344 345 266 243 244 258 276 304 317 317 323 348 339 55 209 324 117 7 17 34 341 33 5 4 3 26 297 133 35 102 345 313 301 318 142 122 120 131 178 159
292 293 295 282 298 315 327 335 332 313 249 241 246 260 298 322 318 324 216 322 32 23 161 22 21 194 62 28 30 358 13 352 318 279 78 111 330 316 294 331 353 55 137 167 151 180 274
286 283 289 286 283 294 309 320 338 336 253 230 230 251 305 319 331 302 277 350 9 21 81 163 221 90 241 146 83 285 335 316 28 52 76 74 323 342 297 42 360 71 68 120 120 110 217
278 275 271 274 274 278 293 305 320 324 298 227 214 227 271 58 299 309 350 353 331 57 82 201 92 297 253 126 151 34 311 324 37 72 73 278 15 15 18 356 34 1 17 2 156 187 344
273 272 272 268 267 267 279 290 305 315 322 236 205 200 220 207 209 250 352 336 27 44 243 128 120 158 112 324 109 132 348 16 35 66 50 60 11 60 333 19 44 14 355 348 14 46 342
268 270 264 262 264 270 276 286 292 303 323 252 198 200 184 336 215 15 29 39 47 129 265 167 179 137 157 161 135 159 170 325 125 90 59 120 32 329 59 80 25 16 50 347 356 8 225
258 261 256 254 264 276 279 281 284 296 310 266 181 179 245 232 326 323 58 65 104 226 123 165 129 130 179 148 190 189 168 217 271 297 120 141 300 301 12 93 108 247 153 152 217 261 294
252 250 248 248 252 265 274 276 279 290 314 230 115 48 272 247 228 230 81 77 200 211 141 163 127 111 234 108 67 84 201 217 203 187 156 161 131 118 59 15 49 306 296 222 74 6 33
249 243 245 245 252 260 265 265 275 282 305 141 143 92 254 183 171 92 90 215 214 136 133 145 143 178 150 141 95 183 216 229 195 117 114 54 106 233 76 39 92 104 258 56 8 137 262
246 245 241 239 253 261 262 255 263 279 158 136 72 113 253 157 109 73 157 220 203 138 136 164 166 144 142 147 175 195 236 315 106 81 73 94 107 237 61 206 182 116 98 93 126 149 182
241 240 234 230 236 256 263 246 243 244 150 108 91 119 119 170 126 164 175 196 234 150 166 99 57 99 177 151 161 285 184 29 20 121 118 89 124 167 202 160 59 79 198 147 127 256 232
238 235 232 228 236 244 250 232 226 191 174 133 147 239 249 5 163 179 189 229 262 141 162 155 185 141 25 154 128 185 109 319 13 89 123 143 226 77 342 352 13 214 186 102 122 92 226
236 231 223 220 226 240 239 224 220 185 191 150 123 244 114 121 262 168 187 198 221 180 160 165 150 119 107 166 349 173 138 90 4 66 225 117 152 161 190 197 148 228 220 116 131 153 203
231 224 218 217 224 231 229 222 213 190 194 238 140 250 179 159 217 216 195 176 212 208 170 170 146 148 146 148 104 165 103 127 24 152 62 95 162 178 213 225 191 189 202 175 196 225 187
225 221 215 211 212 210 217 220 213 197 196 264 151 195 220 152 189 187 201 221 198 208 162 197 135 180 201 168 186 199 136 152 174 146 139 125 256 301 297 241 238 231 226 206 216 245 250
223 218 208 202 203 207 212 227 228 200 182 222 204 287 180 155 176 181 214 198 197 202 203 181 164 157 186 219 110 177 148 171 134 135 174 149 128 83 258 28 32 336 227 224 216 195 196
220 215 208 204 208 205 214 227 229 222 192 255 216 249 93 167 176 195 201 195 210 220 174 200 165 138 182 109 64 26 32 49 61 171 152 150 127 118 236 25 309 238 148 201 224 247 219
214 212 207 205 198 214 228 246 225 225 199 230 316 277 157 122 176 207 209 199 211 241 189 175 109 162 149 81 66 42 351 17 326 254 144 158 122 122 145 219 275 307 147 137 157 274 349
211 211 209 207 208 224 224 246 237 219 203 217 235 289 325 120 215 187 196 192 202 218 101 76 21 131 82 85 87 146 190 179 245 183 19 6 120 126 145 172 232 244 106 15 56 287 343
209 210 212 209 213 222 226 259 243 216 202 199 243 189 261 97 279 199 179 203 234 142 112 127 134 82 84 100 113 155 221 166 164 172 183 141 51 175 156 233 287 203 129 334 103 241 339
208 208 213 211 213 225 229 277 235 214 198 189 206 175 73 312 326 7 60 199 33 187 138 199 62 340 43 87 130 211 145 220 146 179 175 162 148 189 127 92 273 160 113 191 195 54 71
209 209 213 211 212 231 236 268 232 205 186 185 218 145 137 86 277 294 59 59 286 257 131 168 158 155 168 103 214 126 25 74 164 206 160 172 175 179 169 211 219 49 119 74 119 117 106